This is the latest recevied weather packets stored in our database for station/object WX5RP. If no packets are shown the sender has not sent any weather packets the latest 10 day(s).
| Time | Temp. | Humidity | Pressure | Rain* | Wind** | Luminosity | Snow |
|---|---|---|---|---|---|---|---|
| 1777808116 | 3.89° C | 80% | 1016.7 hPa | 0 mm | - | 0 W/m² | - |
| 1777807516 | 3.33° C | 79% | 1016.5 hPa | 0 mm | - | 0 W/m² | - |
| 1777806916 | 3.89° C | 79% | 1016.5 hPa | 0 mm | - | 0 W/m² | - |
| 1777806317 | 4.44° C | 78% | 1016.5 hPa | 0 mm | - | 0 W/m² | - |
| 1777805716 | 5° C | 78% | 1015.9 hPa | 0 mm | - | 0 W/m² | - |
| 1777805116 | 5.56° C | 79% | 1016.2 hPa | 0 mm | - | 0 W/m² | - |
| 1777804516 | 5° C | 80% | 1016 hPa | 0 mm | - | 0 W/m² | - |
| 1777803915 | 5° C | 80% | 1016.2 hPa | 0 mm | - | 0 W/m² | - |
| 1777803316 | 5° C | 78% | 1015.9 hPa | 0 mm | - | 0 W/m² | - |
| 1777802716 | 5.56° C | 77% | 1016.8 hPa | 0 mm | - | 0 W/m² | - |
| 1777802115 | 6.11° C | 76% | 1016.7 hPa | 0 mm | - | 0 W/m² | - |
| 1777801516 | 6.67° C | 76% | 1017 hPa | 0 mm | - | 0 W/m² | - |
| 1777800916 | 6.67° C | 75% | 1017.1 hPa | 0 mm | - | 0 W/m² | - |
| 1777800315 | 6.67° C | 76% | 1017.1 hPa | 0 mm | - | 0 W/m² | - |
| 1777799716 | 7.22° C | 76% | 1017.4 hPa | 0 mm | - | 0 W/m² | - |
| 1777799123 | 7.78° C | 75% | 1017 hPa | 0 mm | - | 0 W/m² | - |
| 1777798515 | 7.78° C | 74% | 1017.6 hPa | 0 mm | - | 0 W/m² | - |
| 1777797916 | 7.22° C | 73% | 1017 hPa | 0 mm | - | 0 W/m² | - |
| 1777797315 | 7.22° C | 74% | 1017.3 hPa | 0 mm | - | 0 W/m² | - |
| 1777796715 | 7.22° C | 74% | 1017.3 hPa | 0 mm | - | 0 W/m² | - |
| 1777796115 | 7.78° C | 73% | 1017.6 hPa | 0 mm | - | 0 W/m² | - |
| 1777795517 | 7.78° C | 73% | 1017 hPa | 0 mm | - | 0 W/m² | - |
| 1777794917 | 8.89° C | 67% | 1017 hPa | 0 mm | - | 0 W/m² | - |
| 1777794315 | 8.89° C | 67% | 1017 hPa | 0 mm | - | 0 W/m² | - |
| 1777793717 | 9.44° C | 68% | 1017 hPa | 0 mm | - | 0 W/m² | - |
* Rain latest hour (hover to see other rain measurements)
** Current wind speed in m/s (hover to see current wind gust speed)